Regional Weather Roundup
Issued by NWS Sioux Falls, SD

Home | Current Version | Previous Version | Graphics & Text | Print | Product List | Glossary On
Versions: 1 2 3 4 5 6 7 8 9 10 11 12 13 14 15 16 17 18 19 20 21 22 23 24 25 26 27 28 29 30 31 32 33 34 35 36 37 38 39 40 41 42 43 44 45 46 47 48 49 50
000
ASUS43 KFSD 021402
RWRFSD

WEATHER ROUNDUP FOR SE SOUTH DAKOTA/SW MINNESOTA/NW IOWA
NATIONAL WEATHER SERVICE SIOUX FALLS SD
900 AM CDT TUE JUN 02 2015

NOTE: "FAIR" INDICATES FEW OR NO CLOUDS BELOW 12,000 FEET WITH NO
SIGNIFICANT WEATHER AND OR OBSTRUCTIONS TO VISIBILITY.


SDZ038>040-050-052>070-021500-
SOUTHEAST SOUTH DAKOTA

CITY           SKY/WX    TMP DP  RH WIND       PRES   REMARKS
BROOKINGS      PTSUNNY   63  54  72 S20G31    29.93S
CHAMBERLAIN    NOT AVBL
HURON          PTSUNNY   65  56  72 S17G24    29.87F
MADISON        FAIR      63  57  82 S25G32    29.91F
MITCHELL       PTSUNNY   66  57  72 S18       29.88R
SIOUX FALLS    PTSUNNY   62  54  74 S16G25    29.95F
WINNER         FAIR      70  59  68 S13       29.83R
YANKTON        MOSUNNY   64  55  72 SE21      29.92S
$$

MNZ071-072-080-081-089-090-097-098-021500-
SOUTHWEST MINNESOTA

CITY           SKY/WX    TMP DP  RH WIND       PRES   REMARKS
FAIRMONT       PTSUNNY   61  50  67 S20       30.04S
JACKSON        MOSUNNY   63  54  72 S16G22    30.02F
LUVERNE        CLOUDY    63  54  72 S21       29.98F
MARSHALL       PTSUNNY   64  52  63 S23       29.94F
MONTEVIDEO     CLOUDY    64  54  68 S14G23    29.95F
PIPESTONE      CLOUDY    63  54  72 S20       29.95S
REDWOOD FALLS  CLOUDY    63  54  72 S15       29.99S
TRACY          PTSUNNY   64  54  70 S18G29    29.96F
WINDOM         PTSUNNY   63  55  77 S9G18     30.01S
WORTHINGTON    MOSUNNY   63  52  67 S21G29    30.00S
$$

IAZ001>003-012>014-020>022-031-032-NEZ013-014-SDZ071-021500-
NORTHWEST IOWA

CITY           SKY/WX    TMP DP  RH WIND       PRES   REMARKS
DENISON        CLOUDY    59  57  94 S16G23    30.04F
ESTHERVILLE    MOSUNNY   60  54  80 S20       30.03F
SIOUX CITY     MOSUNNY   63  54  72 S15       29.99F
SPENCER        PTSUNNY   63  55  75 S20       30.02F
$$

ABBREVIATIONS USED IN REMARKS
   TC - TEMPERATURE IN CELSIUS
  WCI - WIND CHILL INDEX
   HX - HEAT INDEX
  VSB - VISIBILITY



USA.gov is the U.S. government's official web portal to all federal, state and local government web resources and services.